Location: Memphis Junction
(33.8007°N, 89.7968°W)
Time: 03:51:03
(UTC+00:00)

X-37B - Visible Passes

Search period start: 18 January 2022 00:00
Search period end: 28 January 2022 00:00
Orbit: 334 x 337 km, 45.0° (Epoch: 11 January)

Date Brightness Start Highest point End Pass type
(mag) Time Alt. Az. Time Alt. Az. Time Alt. Az.
23 Jan 3.3 01:07:31 10° SSW 01:07:45 11° SSW 01:07:45 11° SSW visible
24 Jan 3.6 01:27:22 10° SW 01:27:47 13° SW 01:27:47 13° SW visible
25 Jan 1.8 00:12:58 10° SSW 00:15:18 23° SE 00:16:30 18° ESE visible
26 Jan 0.2 00:32:48 10° SW 00:35:37 86° SSE 00:36:23 44° ENE visible
27 Jan 1.7 00:53:34 10° W 00:56:07 30° NNW 00:56:12 30° NNW visible
